| time (UTC) | temp C | wind direction | speed KPH | gust KPH | rain 1hr cm | rain 24hr cm | rain mn cm | humidity % | barometer mb |
| 20260510203512 | 15 | 202 | 3.2 | 12.9 | 0.00 | 0.00 | 0.00 | 37 | 1019.9 |
| 20260510203008 | 15 | 336 | 3.2 | 8.0 | 0.00 | 0.00 | 0.00 | 40 | 1019.9 |
| 20260510202502 | 15 | 93 | 1.6 | 1.6 | 0.00 | 0.00 | 0.00 | 38 | 1020.1 |
| 20260510201959 | 15 | 68 | 1.6 | 6.4 | 0.00 | 0.00 | 0.00 | 38 | 1020.3 |
| 20260510201457 | 15 | 334 | 8.0 | 11.3 | 0.00 | 0.00 | 0.00 | 37 | 1020.2 |
| 20260510200953 | 15 | 68 | 1.6 | 11.3 | 0.00 | 0.00 | 0.00 | 38 | 1020.3 |
| 20260510200448 | 15 | 161 | 3.2 | 11.3 | 0.00 | 0.00 | 0.00 | 41 | 1020.2 |
| 20260510195946 | 15 | 265 | 6.4 | 12.9 | 0.00 | 0.00 | 0.00 | 39 | 1020.2 |
| 20260510195444 | 15 | 308 | 6.4 | 11.3 | 0.00 | 0.00 | 0.00 | 38 | 1020.3 |
| 20260510194939 | 15 | 357 | 9.7 | 19.3 | 0.00 | 0.00 | 0.00 | 36 | 1020.2 |
| 20260510194436 | 15 | 139 | 3.2 | 6.4 | 0.00 | 0.00 | 0.00 | 39 | 1020.4 |
| 20260510193931 | 15 | 357 | 6.4 | 11.3 | 0.00 | 0.00 | 0.00 | 37 | 1020.2 |
| 20260510193427 | 15 | 174 | 0.0 | 6.4 | 0.00 | 0.00 | 0.00 | 41 | 1020.0 |
| 20260510192922 | 15 | 232 | 4.8 | 11.3 | 0.00 | 0.00 | 0.00 | 37 | 1020.2 |
| 20260510192418 | 15 | 302 | 11.3 | 16.1 | 0.00 | 0.00 | 0.00 | 35 | 1020.3 |
| 20260510191914 | 15 | 324 | 6.4 | 8.0 | 0.00 | 0.00 | 0.00 | 38 | 1020.2 |
| 20260510191410 | 15 | 306 | 4.8 | 12.9 | 0.00 | 0.00 | 0.00 | 36 | 1020.3 |
| 20260510190907 | 15 | 235 | 9.7 | 16.1 | 0.00 | 0.00 | 0.00 | 35 | 1020.2 |
| 20260510190405 | 15 | 270 | 3.2 | 11.3 | 0.00 | 0.00 | 0.00 | 37 | 1020.2 |
| 20260510185901 | 15 | 93 | 1.6 | 8.0 | 0.00 | 0.00 | 0.00 | 37 | 1020.0 |
| 20260510185359 | 15 | 294 | 4.8 | 11.3 | 0.00 | 0.00 | 0.00 | 36 | 1020.0 |
| 20260510184856 | 15 | 204 | 4.8 | 11.3 | 0.00 | 0.00 | 0.00 | 35 | 1019.7 |
| 20260510184353 | 15 | 262 | 3.2 | 17.7 | 0.00 | 0.00 | 0.00 | 35 | 1019.8 |
| 20260510183852 | 15 | 219 | 0.0 | 4.8 | 0.00 | 0.00 | 0.00 | 35 | 1019.8 |
| 20260510183349 | 15 | 120 | 1.6 | 6.4 | 0.00 | 0.00 | 0.00 | 38 | 1019.8 |
| 20260510182844 | 15 | 317 | 9.7 | 11.3 | 0.00 | 0.00 | 0.00 | 35 | 1019.7 |
| 20260510182341 | 14 | 10 | 11.3 | 12.9 | 0.00 | 0.00 | 0.00 | 35 | 1019.7 |
| 20260510181836 | 15 | 114 | 0.0 | 11.3 | 0.00 | 0.00 | 0.00 | 35 | 1019.6 |
| 20260510181334 | 15 | 336 | 9.7 | 12.9 | 0.00 | 0.00 | 0.00 | 33 | 1019.7 |
| 20260510180830 | 15 | 13 | 11.3 | 17.7 | 0.00 | 0.00 | 0.00 | 32 | 1019.7 |
| 20260510180327 | 15 | 314 | 6.4 | 16.1 | 0.00 | 0.00 | 0.00 | 32 | 1019.6 |
| 20260510175824 | 15 | 326 | 9.7 | 11.3 | 0.00 | 0.00 | 0.00 | 33 | 1019.6 |
| 20260510175320 | 15 | 12 | 1.6 | 4.8 | 0.00 | 0.00 | 0.00 | 42 | 1019.5 |
| 20260510174816 | 15 | 138 | 1.6 | 4.8 | 0.00 | 0.00 | 0.00 | 41 | 1019.5 |
| 20260510174314 | 15 | 307 | 4.8 | 11.3 | 0.00 | 0.00 | 0.00 | 36 | 1019.5 |
| 20260510173810 | 15 | 180 | 1.6 | 8.0 | 0.00 | 0.00 | 0.00 | 41 | 1019.6 |
| 20260510173306 | 15 | 81 | 3.2 | 8.0 | 0.00 | 0.00 | 0.00 | 39 | 1019.5 |
| 20260510172802 | 15 | 286 | 3.2 | 11.3 | 0.00 | 0.00 | 0.00 | 38 | 1019.5 |
| 20260510172258 | 15 | 313 | 6.4 | 6.4 | 0.00 | 0.00 | 0.00 | 39 | 1019.5 |
| 20260510171755 | 15 | 186 | 1.6 | 4.8 | 0.00 | 0.00 | 0.00 | 45 | 1019.6 |
| 20260510171252 | 15 | 318 | 4.8 | 22.5 | 0.00 | 0.00 | 0.00 | 39 | 1019.5 |
| 20260510170749 | 15 | 155 | 1.6 | 4.8 | 0.00 | 0.00 | 0.00 | 40 | 1019.5 |
| 20260510170245 | 15 | 183 | 3.2 | 4.8 | 0.00 | 0.00 | 0.00 | 42 | 1019.5 |
| 20260510165741 | 14 | 135 | 0.0 | 6.4 | 0.00 | 0.00 | 0.00 | 43 | 1019.5 |
| 20260510165237 | 14 | 75 | 1.6 | 8.0 | 0.00 | 0.00 | 0.00 | 40 | 1019.6 |
| 20260510164734 | 14 | 35 | 4.8 | 6.4 | 0.00 | 0.00 | 0.00 | 40 | 1019.3 |
| 20260510164232 | 15 | 70 | 3.2 | 4.8 | 0.00 | 0.00 | 0.00 | 40 | 1019.3 |
| 20260510163732 | 14 | 95 | 1.6 | 6.4 | 0.00 | 0.00 | 0.00 | 40 | 1019.3 |
| 20260510163228 | 13 | 50 | 3.2 | 8.0 | 0.00 | 0.00 | 0.00 | 42 | 1019.3 |
| 20260510162727 | 13 | 49 | 4.8 | 6.4 | 0.00 | 0.00 | 0.00 | 44 | 1019.3 |
| 20260510162225 | 13 | 144 | 1.6 | 8.0 | 0.00 | 0.00 | 0.00 | 42 | 1019.3 |
| 20260510161720 | 13 | 116 | 0.0 | 1.6 | 0.00 | 0.00 | 0.00 | 46 | 1019.2 |
| 20260510161217 | 13 | 108 | 1.6 | 6.4 | 0.00 | 0.00 | 0.00 | 46 | 1019.2 |
| 20260510160714 | 13 | 123 | 0.0 | 6.4 | 0.00 | 0.00 | 0.00 | 44 | 1019.0 |
| 20260510160209 | 13 | 103 | 0.0 | 1.6 | 0.00 | 0.00 | 0.00 | 45 | 1019.3 |
| 20260510155705 | 13 | 109 | 1.6 | 6.4 | 0.00 | 0.00 | 0.00 | 46 | 1019.0 |
| 20260510155201 | 13 | 110 | 0.0 | 4.8 | 0.00 | 0.00 | 0.00 | 46 | 1019.0 |
| 20260510154657 | 13 | 208 | 1.6 | 4.8 | 0.00 | 0.00 | 0.00 | 50 | 1018.9 |
| 20260510154153 | 12 | 65 | 0.0 | 6.4 | 0.00 | 0.00 | 0.00 | 44 | 1018.9 |
| 20260510153648 | 13 | 125 | 1.6 | 4.8 | 0.00 | 0.00 | 0.00 | 45 | 1018.9 |
| 20260510153145 | 12 | 121 | 1.6 | 11.3 | 0.00 | 0.00 | 0.00 | 48 | 1018.7 |
| 20260510152642 | 12 | 70 | 3.2 | 6.4 | 0.00 | 0.00 | 0.00 | 48 | 1018.9 |
| 20260510152138 | 12 | 103 | 1.6 | 6.4 | 0.00 | 0.00 | 0.00 | 45 | 1018.8 |
| 20260510151634 | 12 | 118 | 0.0 | 4.8 | 0.00 | 0.00 | 0.00 | 48 | 1018.6 |
| 20260510151134 | 12 | 128 | 0.0 | 6.4 | 0.00 | 0.00 | 0.00 | 49 | 1018.6 |
| 20260510150634 | 12 | 68 | 4.8 | 6.4 | 0.00 | 0.00 | 0.00 | 46 | 1018.7 |
| 20260510150129 | 12 | 41 | 3.2 | 6.4 | 0.00 | 0.00 | 0.00 | 48 | 1018.6 |
| 20260510145626 | 12 | 63 | 0.0 | 6.4 | 0.00 | 0.00 | 0.00 | 45 | 1018.6 |
| 20260510133302 | 10 | 212 | 1.6 | 8.0 | 0.00 | 0.00 | 0.00 | 55 | 1018.2 |
| 20260510132757 | 10 | 212 | 1.6 | 8.0 | 0.00 | 0.00 | 0.00 | 55 | 1018.2 |
| 20260510132256 | 10 | 71 | 3.2 | 8.0 | 0.00 | 0.00 | 0.00 | 55 | 1018.3 |
| 20260510131752 | 10 | 83 | 4.8 | 11.3 | 0.00 | 0.00 | 0.00 | 54 | 1018.0 |
| 20260510131250 | 10 | 109 | 3.2 | 12.9 | 0.00 | 0.00 | 0.00 | 56 | 1017.8 |
| 20260510130746 | 10 | 74 | 3.2 | 8.0 | 0.00 | 0.00 | 0.00 | 58 | 1017.5 |
| 20260510130243 | 10 | 89 | 6.4 | 12.9 | 0.00 | 0.00 | 0.00 | 56 | 1017.6 |
| 20260510125740 | 10 | 131 | 1.6 | 11.3 | 0.00 | 0.00 | 0.00 | 61 | 1017.7 |
| 20260510125236 | 10 | 87 | 3.2 | 6.4 | 0.00 | 0.00 | 0.00 | 62 | 1017.4 |
| 20260510124732 | 10 | 116 | 0.0 | 4.8 | 0.00 | 0.00 | 0.00 | 61 | 1017.2 |
| 20260510124230 | 10 | 84 | 3.2 | 8.0 | 0.00 | 0.00 | 0.00 | 59 | 1017.2 |
| 20260510123725 | 10 | 214 | 4.8 | 6.4 | 0.00 | 0.00 | 0.00 | 62 | 1017.1 |
| 20260510123221 | 10 | 141 | 1.6 | 8.0 | 0.00 | 0.00 | 0.00 | 61 | 1017.1 |
| 20260510122717 | 9 | 62 | 1.6 | 11.3 | 0.00 | 0.00 | 0.00 | 63 | 1017.2 |
| 20260510122214 | 9 | 101 | 1.6 | 4.8 | 0.00 | 0.00 | 0.00 | 66 | 1017.1 |
| 20260510121710 | 9 | 87 | 1.6 | 1.6 | 0.00 | 0.00 | 0.00 | 67 | 1016.9 |
| 20260510121208 | 9 | 131 | 0.0 | 1.6 | 0.00 | 0.00 | 0.00 | 66 | 1017.1 |
| 20260510120705 | 9 | 56 | 0.0 | 4.8 | 0.00 | 0.00 | 0.00 | 66 | 1016.9 |
| 20260510120201 | 9 | 97 | 1.6 | 4.8 | 0.00 | 0.00 | 0.00 | 68 | 1016.8 |
| 20260510115652 | 9 | 74 | 0.0 | 4.8 | 0.00 | 0.00 | 0.00 | 68 | 1016.9 |
| 20260510115150 | 9 | 92 | 1.6 | 6.4 | 0.00 | 0.00 | 0.00 | 66 | 1016.6 |
| 20260510114645 | 9 | 72 | 1.6 | 8.0 | 0.00 | 0.00 | 0.00 | 69 | 1016.5 |
| 20260510114142 | 9 | 104 | 1.6 | 4.8 | 0.00 | 0.00 | 0.00 | 70 | 1016.0 |
| 20260510113636 | 8 | 89 | 1.6 | 4.8 | 0.00 | 0.00 | 0.00 | 69 | 1016.2 |
| 20260510113134 | 9 | 124 | 1.6 | 1.6 | 0.00 | 0.00 | 0.00 | 70 | 1015.7 |
| 20260510112631 | 9 | 98 | 1.6 | 4.8 | 0.00 | 0.00 | 0.00 | 70 | 1015.9 |
| 20260510112127 | 8 | 135 | 1.6 | 6.4 | 0.00 | 0.00 | 0.00 | 71 | 1015.9 |
| 20260510111624 | 8 | 81 | 1.6 | 8.0 | 0.00 | 0.00 | 0.00 | 72 | 1015.7 |
| 20260510111120 | 8 | 92 | 6.4 | 11.3 | 0.00 | 0.00 | 0.00 | 74 | 1015.4 |
| 20260510110615 | 8 | 110 | 1.6 | 4.8 | 0.00 | 0.00 | 0.00 | 74 | 1015.2 |
| 20260510110113 | 8 | 69 | 3.2 | 6.4 | 0.00 | 0.00 | 0.00 | 74 | 1015.4 |
| 20260510105608 | 8 | 128 | 0.0 | 1.6 | 0.00 | 0.00 | 0.00 | 75 | 1015.4 |
| 20260510105103 | 8 | 125 | 0.0 | 6.4 | 0.00 | 0.00 | 0.00 | 74 | 1015.0 |
| 20260510104600 | 8 | 119 | 0.0 | 4.8 | 0.00 | 0.00 | 0.00 | 75 | 1015.0 |
| 20260510104056 | 8 | 86 | 1.6 | 1.6 | 0.00 | 0.00 | 0.00 | 76 | 1014.7 |
| 20260510103553 | 8 | 48 | 1.6 | 4.8 | 0.00 | 0.00 | 0.00 | 77 | 1014.5 |
| 20260510103049 | 8 | 132 | 0.0 | 1.6 | 0.00 | 0.00 | 0.00 | 78 | 1014.5 |
| 20260510102545 | 8 | 60 | 1.6 | 4.8 | 0.00 | 0.00 | 0.00 | 79 | 1014.5 |
| 20260510102041 | 8 | 129 | 0.0 | 1.6 | 0.00 | 0.00 | 0.00 | 79 | 1014.4 |
| 20260510101539 | 8 | 103 | 1.6 | 1.6 | 0.00 | 0.00 | 0.00 | 79 | 1014.2 |
| 20260510101038 | 8 | 107 | 0.0 | 1.6 | 0.00 | 0.00 | 0.00 | 79 | 1014.3 |
| 20260510100533 | 8 | 72 | 1.6 | 4.8 | 0.00 | 0.00 | 0.00 | 79 | 1013.9 |
| 20260510100031 | 8 | 109 | 0.0 | 1.6 | 0.00 | 0.00 | 0.00 | 80 | 1014.1 |
| 20260510095526 | 8 | 115 | 0.0 | 0.0 | 0.00 | 0.00 | 0.00 | 80 | 1014.1 |
| 20260510095025 | 8 | 119 | 0.0 | 1.6 | 0.00 | 0.00 | 0.00 | 80 | 1014.1 |
| 20260510094520 | 8 | 99 | 1.6 | 4.8 | 0.00 | 0.00 | 0.00 | 81 | 1014.0 |
| 20260510094016 | 8 | 97 | 0.0 | 1.6 | 0.00 | 0.00 | 0.00 | 81 | 1014.1 |
| 20260510093512 | 8 | 122 | 0.0 | 4.8 | 0.00 | 0.00 | 0.00 | 81 | 1013.9 |
| 20260510093009 | 8 | 123 | 0.0 | 0.0 | 0.00 | 0.00 | 0.00 | 83 | 1014.0 |
| 20260510092506 | 8 | 123 | 0.0 | 1.6 | 0.00 | 0.00 | 0.00 | 84 | 1013.7 |
| 20260510092005 | 8 | 194 | 0.0 | 0.0 | 0.00 | 0.00 | 0.00 | 85 | 1013.7 |
| 20260510091503 | 8 | 194 | 0.0 | 0.0 | 0.00 | 0.00 | 0.00 | 86 | 1013.7 |
| 20260510090959 | 8 | 194 | 0.0 | 0.0 | 0.00 | 0.00 | 0.00 | 87 | 1013.4 |
| 20260510090456 | 8 | 194 | 0.0 | 0.0 | 0.00 | 0.00 | 0.00 | 87 | 1013.3 |
| 20260510085951 | 8 | 194 | 0.0 | 0.0 | 0.00 | 0.00 | 0.00 | 87 | 1013.3 |
| 20260510085447 | 8 | 195 | 0.0 | 0.0 | 0.00 | 0.00 | 0.00 | 87 | 1013.2 |
| 20260510084942 | 8 | 196 | 0.0 | 1.6 | 0.00 | 0.00 | 0.00 | 87 | 1013.3 |
| 20260510084440 | 8 | 183 | 0.0 | 0.0 | 0.00 | 0.00 | 0.00 | 87 | 1012.9 |
| 20260510083936 | 8 | 183 | 0.0 | 0.0 | 0.00 | 0.00 | 0.00 | 87 | 1013.0 |
| 20260510083433 | 8 | 183 | 0.0 | 0.0 | 0.00 | 0.00 | 0.00 | 86 | 1012.9 |
| 20260510082928 | 8 | 183 | 0.0 | 0.0 | 0.00 | 0.00 | 0.00 | 86 | 1012.7 |
| 20260510082426 | 8 | 183 | 0.0 | 0.0 | 0.00 | 0.00 | 0.00 | 86 | 1012.9 |
| 20260510081925 | 8 | 183 | 0.0 | 0.0 | 0.00 | 0.00 | 0.00 | 86 | 1012.5 |
| 20260510081421 | 8 | 183 | 0.0 | 0.0 | 0.00 | 0.00 | 0.00 | 85 | 1012.7 |
| 20260510080918 | 8 | 183 | 0.0 | 0.0 | 0.00 | 0.00 | 0.00 | 85 | 1012.7 |
| 20260510080416 | 8 | 183 | 0.0 | 0.0 | 0.00 | 0.00 | 0.00 | 84 | 1012.6 |
| 20260510075914 | 8 | 183 | 0.0 | 0.0 | 0.00 | 0.00 | 0.00 | 84 | 1012.5 |
| 20260510075412 | 8 | 184 | 0.0 | 1.6 | 0.00 | 0.00 | 0.00 | 84 | 1012.1 |
| 20260510074908 | 8 | 179 | 0.0 | 1.6 | 0.00 | 0.00 | 0.00 | 83 | 1012.2 |
| 20260510074405 | 8 | 189 | 1.6 | 1.6 | 0.00 | 0.00 | 0.00 | 83 | 1011.9 |
| 20260510073902 | 9 | 123 | 0.0 | 0.0 | 0.00 | 0.00 | 0.00 | 82 | 1011.7 |
| 20260510073357 | 9 | 123 | 0.0 | 0.0 | 0.00 | 0.00 | 0.00 | 81 | 1011.7 |
| 20260510072853 | 9 | 123 | 0.0 | 1.6 | 0.00 | 0.00 | 0.00 | 81 | 1011.7 |
| 20260510072350 | 9 | 123 | 0.0 | 0.0 | 0.00 | 0.00 | 0.00 | 80 | 1011.5 |
| 20260510071846 | 9 | 123 | 0.0 | 0.0 | 0.00 | 0.00 | 0.00 | 78 | 1011.7 |
| 20260510071343 | 10 | 123 | 0.0 | 0.0 | 0.00 | 0.00 | 0.00 | 77 | 1011.4 |
| 20260510070842 | 10 | 122 | 0.0 | 0.0 | 0.00 | 0.00 | 0.00 | 77 | 1011.5 |
| 20260510070339 | 10 | 125 | 0.0 | 0.0 | 0.00 | 0.00 | 0.00 | 75 | 1011.5 |
| 20260510065839 | 10 | 125 | 0.0 | 1.6 | 0.00 | 0.00 | 0.00 | 74 | 1011.5 |
| 20260510065336 | 10 | 131 | 0.0 | 0.0 | 0.00 | 0.00 | 0.00 | 74 | 1011.6 |
| 20260510064832 | 10 | 113 | 0.0 | 0.0 | 0.00 | 0.00 | 0.00 | 73 | 1011.5 |
| 20260510064331 | 10 | 113 | 0.0 | 0.0 | 0.00 | 0.00 | 0.00 | 72 | 1011.3 |
| 20260510063827 | 11 | 76 | 3.2 | 4.8 | 0.00 | 0.00 | 0.00 | 71 | 1011.4 |
| 20260510063323 | 11 | 116 | 0.0 | 1.6 | 0.00 | 0.00 | 0.00 | 70 | 1011.2 |
| 20260510062820 | 11 | 129 | 0.0 | 0.0 | 0.00 | 0.00 | 0.00 | 70 | 1011.3 |
| 20260510062315 | 11 | 113 | 0.0 | 4.8 | 0.00 | 0.00 | 0.00 | 69 | 1011.4 |
| 20260510061816 | 11 | 111 | 0.0 | 1.6 | 0.00 | 0.00 | 0.00 | 69 | 1011.2 |
| 20260510061313 | 11 | 68 | 1.6 | 11.3 | 0.00 | 0.00 | 0.00 | 69 | 1011.3 |
| 20260510060809 | 11 | 73 | 3.2 | 6.4 | 0.00 | 0.00 | 0.00 | 69 | 1011.0 |
| 20260510060306 | 11 | 108 | 1.6 | 6.4 | 0.00 | 0.00 | 0.00 | 69 | 1011.1 |
| 20260510055804 | 11 | 54 | 1.6 | 4.8 | 0.00 | 0.00 | 0.00 | 70 | 1010.9 |
| 20260510055306 | 11 | 90 | 1.6 | 12.9 | 0.00 | 0.00 | 0.00 | 69 | 1011.0 |
| 20260510054802 | 12 | 83 | 3.2 | 11.3 | 0.00 | 0.00 | 0.00 | 71 | 1011.1 |
| 20260510054258 | 12 | 82 | 6.4 | 17.7 | 0.00 | 0.00 | 0.00 | 74 | 1010.9 |
| 20260510053758 | 12 | 106 | 6.4 | 16.1 | 0.00 | 0.00 | 0.00 | 80 | 1010.7 |
| 20260510053253 | 13 | 54 | 6.4 | 12.9 | 0.00 | 0.00 | 0.00 | 81 | 1010.6 |
| 20260510052750 | 13 | 39 | 4.8 | 12.9 | 0.00 | 0.00 | 0.00 | 80 | 1010.2 |
| 20260510052246 | 14 | 9 | 4.8 | 6.4 | 0.00 | 0.00 | 0.00 | 80 | 1010.2 |
| 20260510051742 | 14 | 223 | 0.0 | 0.0 | 0.00 | 0.00 | 0.00 | 79 | 1009.7 |
| 20260510051238 | 14 | 223 | 0.0 | 0.0 | 0.00 | 0.00 | 0.00 | 79 | 1009.6 |
| 20260510050735 | 14 | 223 | 0.0 | 1.6 | 0.00 | 0.00 | 0.00 | 78 | 1009.7 |
| 20260510050233 | 14 | 228 | 0.0 | 4.8 | 0.00 | 0.00 | 0.00 | 78 | 1009.7 |
| 20260510045729 | 15 | 185 | 0.0 | 1.6 | 0.00 | 0.00 | 0.00 | 79 | 1009.6 |
| 20260510045226 | 14 | 26 | 4.8 | 19.3 | 0.00 | 0.00 | 0.00 | 79 | 1009.6 |
| 20260510044722 | 14 | 186 | 0.0 | 4.8 | 0.00 | 0.00 | 0.00 | 80 | 1009.3 |
| 20260510044221 | 15 | 227 | 9.7 | 12.9 | 0.00 | 0.00 | 0.00 | 80 | 1008.9 |
| 20260510043715 | 14 | 237 | 11.3 | 22.5 | 0.00 | 0.00 | 0.00 | 81 | 1008.9 |
| 20260510043212 | 14 | 233 | 6.4 | 16.1 | 0.00 | 0.00 | 0.00 | 81 | 1009.0 |
| 20260510042709 | 14 | 220 | 8.0 | 16.1 | 0.00 | 0.00 | 0.00 | 81 | 1008.6 |
| 20260510042206 | 14 | 210 | 6.4 | 11.3 | 0.00 | 0.00 | 0.00 | 81 | 1008.3 |
| 20260510041703 | 14 | 193 | 1.6 | 8.0 | 0.00 | 0.00 | 0.00 | 80 | 1008.3 |
| 20260510041200 | 14 | 198 | 3.2 | 6.4 | 0.00 | 0.00 | 0.00 | 79 | 1008.3 |
| 20260510040657 | 14 | 202 | 4.8 | 6.4 | 0.00 | 0.00 | 0.00 | 78 | 1008.3 |
| 20260510040154 | 15 | 225 | 4.8 | 6.4 | 0.00 | 0.00 | 0.00 | 78 | 1008.1 |
| 20260510035649 | 15 | 215 | 6.4 | 8.0 | 0.00 | 1.30 | 1.30 | 78 | 1008.0 |
| 20260510035145 | 15 | 209 | 4.8 | 6.4 | 0.00 | 1.30 | 1.30 | 78 | 1008.0 |
| 20260510034642 | 15 | 178 | 0.0 | 6.4 | 0.00 | 1.30 | 1.30 | 78 | 1008.0 |
| 20260510034139 | 15 | 200 | 1.6 | 6.4 | 0.00 | 1.30 | 1.30 | 78 | 1008.2 |
| 20260510033635 | 15 | 189 | 1.6 | 4.8 | 0.00 | 1.30 | 1.30 | 78 | 1008.1 |
| 20260510033133 | 15 | 212 | 6.4 | 12.9 | 0.00 | 1.30 | 1.30 | 79 | 1008.2 |
| 20260510032629 | 15 | 214 | 3.2 | 6.4 | 0.00 | 1.30 | 1.30 | 79 | 1008.2 |
| 20260510032124 | 15 | 188 | 1.6 | 8.0 | 0.00 | 1.30 | 1.30 | 79 | 1008.2 |
| 20260510031619 | 15 | 200 | 6.4 | 16.1 | 0.00 | 1.30 | 1.30 | 78 | 1008.1 |
| 20260510031116 | 15 | 218 | 9.7 | 16.1 | 0.00 | 1.30 | 1.30 | 78 | 1008.3 |
| 20260510030611 | 15 | 209 | 6.4 | 8.0 | 0.00 | 1.30 | 1.30 | 78 | 1008.3 |
| 20260510030109 | 15 | 222 | 8.0 | 12.9 | 0.00 | 1.30 | 1.30 | 78 | 1008.3 |
| 20260510025606 | 14 | 210 | 9.7 | 11.3 | 0.00 | 1.30 | 1.30 | 80 | 1008.2 |
| 20260510025103 | 14 | 212 | 6.4 | 16.1 | 0.00 | 1.30 | 1.30 | 81 | 1008.2 |
| 20260510024600 | 13 | 208 | 3.2 | 6.4 | 0.00 | 1.30 | 1.30 | 83 | 1008.2 |
| 20260510024056 | 13 | 168 | 1.6 | 1.6 | 0.00 | 1.30 | 1.30 | 83 | 1008.1 |
| 20260510023552 | 14 | 177 | 0.0 | 1.6 | 0.00 | 1.30 | 1.30 | 82 | 1008.1 |
| 20260510023050 | 14 | 178 | 3.2 | 6.4 | 0.00 | 1.30 | 1.30 | 82 | 1008.1 |
| 20260510022549 | 14 | 216 | 6.4 | 11.3 | 0.00 | 1.30 | 1.30 | 83 | 1008.0 |
| 20260510022044 | 14 | 265 | 4.8 | 8.0 | 0.00 | 1.30 | 1.30 | 84 | 1008.0 |
| 20260510021540 | 13 | 232 | 8.0 | 12.9 | 0.00 | 1.30 | 1.30 | 86 | 1008.2 |
| 20260510021038 | 13 | 207 | 11.3 | 12.9 | 0.00 | 1.30 | 1.30 | 88 | 1008.3 |
| 20260510020538 | 13 | 222 | 8.0 | 11.3 | 0.00 | 1.30 | 1.30 | 90 | 1008.5 |
| 20260510020034 | 13 | 172 | 0.0 | 1.6 | 0.00 | 1.30 | 1.30 | 90 | 1007.9 |
| 20260510015530 | 13 | 171 | 0.0 | 1.6 | 0.00 | 1.30 | 1.30 | 89 | 1008.0 |
| 20260510015025 | 13 | 166 | 0.0 | 0.0 | 0.00 | 1.30 | 1.30 | 89 | 1007.9 |
| 20260510014522 | 13 | 166 | 1.6 | 1.6 | 0.00 | 1.30 | 1.30 | 88 | 1007.4 |
| 20260510014019 | 13 | 166 | 0.0 | 0.0 | 0.00 | 1.30 | 1.30 | 87 | 1007.3 |
| 20260510013514 | 13 | 158 | 0.0 | 1.6 | 0.00 | 1.30 | 1.30 | 87 | 1007.4 |
| 20260510013011 | 13 | 159 | 0.0 | 0.0 | 0.00 | 1.30 | 1.30 | 87 | 1007.5 |
| 20260510012505 | 13 | 154 | 0.0 | 1.6 | 0.00 | 1.30 | 1.30 | 86 | 1007.2 |
| 20260510012001 | 13 | 154 | 0.0 | 1.6 | 0.00 | 1.30 | 1.30 | 85 | 1007.5 |
| 20260510011500 | 13 | 166 | 0.0 | 0.0 | 0.00 | 1.30 | 1.30 | 84 | 1007.0 |
| 20260510010957 | 13 | 187 | 0.0 | 1.6 | 0.00 | 1.30 | 1.30 | 83 | 1007.0 |
| 20260510010454 | 13 | 186 | 0.0 | 1.6 | 0.00 | 1.30 | 1.30 | 82 | 1007.2 |
| 20260510005951 | 13 | 177 | 1.6 | 8.0 | 0.00 | 1.30 | 1.30 | 82 | 1007.3 |
| 20260510005447 | 13 | 181 | 1.6 | 4.8 | 0.00 | 1.30 | 1.30 | 82 | 1007.2 |
| 20260510004945 | 14 | 184 | 0.0 | 6.4 | 0.00 | 1.30 | 1.30 | 82 | 1007.1 |
| 20260510004441 | 14 | 204 | 3.2 | 4.8 | 0.00 | 1.30 | 1.30 | 82 | 1007.2 |
| 20260510003940 | 14 | 211 | 3.2 | 6.4 | 0.00 | 1.30 | 1.30 | 82 | 1007.3 |
| 20260510003436 | 14 | 198 | 0.0 | 1.6 | 0.00 | 1.30 | 1.30 | 82 | 1007.1 |
| 20260510002936 | 14 | 196 | 3.2 | 8.0 | 0.00 | 1.30 | 1.30 | 83 | 1007.2 |
| 20260510002433 | 14 | 200 | 0.0 | 1.6 | 0.00 | 1.30 | 1.30 | 84 | 1007.3 |
| 20260510001929 | 14 | 217 | 6.4 | 8.0 | 0.00 | 1.30 | 1.30 | 84 | 1007.3 |
| 20260510001427 | 14 | 195 | 3.2 | 8.0 | 0.00 | 1.30 | 1.30 | 84 | 1007.1 |
| 20260510000924 | 14 | 212 | 3.2 | 11.3 | 0.00 | 1.30 | 1.30 | 85 | 1007.0 |
| 20260510000421 | 14 | 205 | 4.8 | 8.0 | 0.00 | 1.30 | 1.30 | 85 | 1007.2 |
| 20260509235917 | 14 | 216 | 6.4 | 11.3 | 0.00 | 1.30 | 1.30 | 85 | 1007.1 |
| 20260509235414 | 14 | 200 | 3.2 | 4.8 | 0.00 | 1.30 | 1.30 | 86 | 1007.2 |
| 20260509234910 | 14 | 213 | 8.0 | 12.9 | 0.00 | 1.30 | 1.30 | 86 | 1007.1 |
| 20260509234407 | 14 | 209 | 3.2 | 8.0 | 0.00 | 1.30 | 1.30 | 87 | 1006.9 |
| 20260509233905 | 14 | 197 | 4.8 | 12.9 | 0.00 | 1.30 | 1.30 | 87 | 1006.8 |
| 20260509233403 | 14 | 209 | 6.4 | 11.3 | 0.00 | 1.30 | 1.30 | 87 | 1006.7 |
| 20260509232857 | 14 | 215 | 4.8 | 6.4 | 0.00 | 1.30 | 1.30 | 88 | 1006.9 |
| 20260509232356 | 14 | 247 | 6.4 | 11.3 | 0.00 | 1.30 | 1.30 | 88 | 1006.8 |
| 20260509231852 | 13 | 223 | 6.4 | 12.9 | 0.18 | 1.30 | 1.30 | 89 | 1006.9 |
| 20260509231349 | 13 | 256 | 4.8 | 11.3 | 0.30 | 1.30 | 1.30 | 90 | 1006.7 |
| 20260509230847 | 13 | 232 | 12.9 | 17.7 | 0.13 | 1.27 | 1.27 | 91 | 1006.9 |
| 20260509230343 | 13 | 225 | 6.4 | 12.9 | 0.00 | 1.24 | 1.24 | 91 | 1007.1 |
| 20260509225838 | 13 | 244 | 8.0 | 16.1 | 0.18 | 1.24 | 1.24 | 91 | 1007.3 |
| 20260509225336 | 13 | 234 | 3.2 | 8.0 | 0.18 | 1.24 | 1.24 | 91 | 1007.0 |
| 20260509224832 | 13 | 186 | 1.6 | 4.8 | 0.00 | 1.22 | 1.22 | 91 | 1007.0 |
| 20260509224328 | 13 | 202 | 1.6 | 17.7 | 1.80 | 1.22 | 1.22 | 90 | 1007.0 |
| 20260509223825 | 13 | 351 | 12.9 | 22.5 | 5.64 | 1.22 | 1.22 | 89 | 1006.4 |
| 20260509223322 | 14 | 353 | 16.1 | 25.7 | 4.75 | 0.79 | 0.79 | 84 | 1007.2 |
| 20260509222819 | 16 | 140 | 3.2 | 24.1 | 1.27 | 0.20 | 0.20 | 75 | 1006.9 |
| 20260509222314 | 20 | 329 | 8.0 | 11.3 | 0.00 | 0.00 | 0.00 | 58 | 1005.5 |
| 20260509221809 | 20 | 230 | 4.8 | 22.5 | 0.00 | 0.00 | 0.00 | 57 | 1004.9 |
| 20260509221307 | 21 | 211 | 19.3 | 33.8 | 0.00 | 0.00 | 0.00 | 52 | 1004.4 |
| 20260509220802 | 21 | 218 | 14.5 | 24.1 | 0.00 | 0.00 | 0.00 | 50 | 1004.3 |
| 20260509220259 | 21 | 202 | 14.5 | 24.1 | 0.00 | 0.00 | 0.00 | 50 | 1004.6 |
| 20260509215754 | 21 | 206 | 12.9 | 24.1 | 0.00 | 0.00 | 0.00 | 49 | 1004.5 |
| 20260509215251 | 21 | 230 | 11.3 | 12.9 | 0.00 | 0.00 | 0.00 | 50 | 1004.5 |
| 20260509214748 | 21 | 219 | 9.7 | 17.7 | 0.00 | 0.00 | 0.00 | 49 | 1004.3 |
| 20260509214245 | 21 | 235 | 17.7 | 35.4 | 0.00 | 0.00 | 0.00 | 48 | 1004.6 |
| 20260509213742 | 21 | 219 | 22.5 | 35.4 | 0.00 | 0.00 | 0.00 | 47 | 1004.4 |
| 20260509213238 | 22 | 260 | 16.1 | 25.7 | 0.00 | 0.00 | 0.00 | 48 | 1004.4 |
| 20260509212735 | 22 | 217 | 20.9 | 37.0 | 0.00 | 0.00 | 0.00 | 48 | 1004.5 |
| 20260509212233 | 22 | 235 | 17.7 | 30.6 | 0.00 | 0.00 | 0.00 | 46 | 1004.3 |
| 20260509211728 | 22 | 276 | 11.3 | 33.8 | 0.00 | 0.00 | 0.00 | 47 | 1004.4 |
| 20260509211225 | 22 | 138 | 3.2 | 24.1 | 0.00 | 0.00 | 0.00 | 49 | 1004.0 |
| 20260509210721 | 22 | 200 | 11.3 | 33.8 | 0.00 | 0.00 | 0.00 | 50 | 1004.3 |
| 20260509210219 | 22 | 191 | 17.7 | 24.1 | 0.00 | 0.00 | 0.00 | 49 | 1004.3 |
| 20260509205719 | 22 | 229 | 14.5 | 33.8 | 0.00 | 0.00 | 0.00 | 49 | 1004.3 |
| 20260509205218 | 22 | 214 | 6.4 | 12.9 | 0.00 | 0.00 | 0.00 | 49 | 1004.3 |
| 20260509204715 | 22 | 234 | 4.8 | 17.7 | 0.00 | 0.00 | 0.00 | 48 | 1004.4 |
| 20260509204211 | 22 | 220 | 6.4 | 30.6 | 0.00 | 0.00 | 0.00 | 50 | 1004.7 |
| 20260509203707 | 22 | 250 | 29.0 | 35.4 | 0.00 | 0.00 | 0.00 | 50 | 1004.8 |